[Date Prev][Date Next][Thread Prev][Thread Next] - [Date Index][Thread Index][Author Index]
2 Line ISS Keps 4-10
- Subject: [sarex] 2 Line ISS Keps 4-10
- From: "Dave Larsen PhD" <doc@xxxxxxxxxxx>
- Date: Wed, 10 Apr 2002 02:19:17 -0700
ISS
1 25544U 98067A 02100.21186037 .00061200 00000-0 73393-3 0 2823
2 25544 51.6368 34.4772 0002638 15.4847 70.7147 15.60322369193439
----
Via the sarex mailing list at AMSAT.ORG courtesy of AMSAT-NA.
To unsubscribe, send "unsubscribe sarex" to Majordomo@amsat.org
AMSAT Home